Theta_e
332 341 352 354 354 354 355 354 354 354 352 351 351 350 351 352 352 352 351 350 348 347 346 344 343 342 340 339 339 341 343 345 348 350 348 348 347 349 349 350 349 348 350
335 344 350 353 355 355 356 355 354 354 353 351 350 350 350 350 352 351 349 348 346 345 344 343 341 340 337 337 336 337 340 342 344 347 347 347 346 345 347 348 348 346 349
338 345 348 351 354 355 355 354 353 353 352 351 350 349 349 348 348 349 347 345 343 341 341 341 340 336 334 335 335 335 336 337 338 338 341 339 340 345 345 345 346 345 347
339 344 346 348 353 354 354 353 352 352 352 350 350 349 348 347 347 347 346 345 342 339 338 338 335 332 331 331 332 332 333 334 333 335 332 341 339 344 344 345 344 342 342
338 343 345 347 352 353 353 352 352 351 351 352 350 350 348 346 344 344 343 342 340 337 335 333 331 329 327 326 327 328 330 331 332 337 337 338 337 343 343 342 340 340 341
337 342 343 348 352 352 352 352 351 352 352 352 351 347 345 344 342 341 340 341 339 337 334 331 328 326 322 322 323 324 327 329 332 330 332 339 337 343 343 341 339 339 340
334 339 342 347 350 351 351 351 351 351 352 351 349 348 345 343 341 339 337 338 337 336 332 329 325 322 320 318 318 321 323 324 324 324 326 331 336 340 338 337 338 337 335
333 336 341 340 343 347 348 349 349 350 350 348 348 347 345 341 338 336 335 337 336 333 329 327 323 321 318 317 316 317 318 323 322 320 320 324 334 337 336 335 333 333 333
328 335 338 341 341 339 342 343 345 347 347 347 347 345 342 340 339 336 333 334 333 332 328 326 322 320 317 315 314 314 319 318 314 315 318 319 333 333 333 331 330 330 330
323 332 335 337 339 341 341 337 339 341 342 344 343 340 336 335 335 333 330 332 333 330 327 324 322 319 316 312 309 310 314 311 307 309 312 316 329 329 328 327 327 327 327
319 325 330 335 338 341 340 337 334 336 336 337 337 333 330 331 328 326 326 329 332 329 327 324 322 319 314 309 305 308 305 297 303 304 308 321 324 325 323 323 324 325 325
315 319 325 329 334 335 340 338 338 336 337 335 334 330 330 327 324 324 321 326 329 327 328 324 321 318 308 295 293 301 295 295 299 300 305 316 317 320 319 321 322 324 326
311 317 323 326 328 331 335 336 337 337 330 329 329 326 326 324 322 319 317 318 317 318 317 318 313 306 301 297 293 294 294 293 293 296 303 312 314 317 319 319 321 324 324
309 314 319 324 327 329 331 331 333 334 332 328 325 324 326 323 321 318 315 313 312 311 310 307 304 302 297 295 295 294 293 292 292 294 297 309 311 315 317 318 322 324 323
303 307 314 321 325 328 327 327 329 330 330 328 325 324 323 324 321 318 315 311 310 308 307 304 302 299 295 294 294 294 293 292 292 294 295 305 309 314 316 318 324 324 323
299 300 308 319 324 324 326 323 328 327 326 325 324 325 323 322 322 316 313 311 308 307 305 304 302 297 294 293 293 293 293 292 292 292 295 296 308 312 317 320 324 324 325
298 299 304 315 320 322 323 321 321 323 323 323 322 321 323 322 321 316 313 311 308 306 305 302 298 294 293 292 291 292 292 292 291 292 293 296 301 313 316 321 324 324 325
297 297 301 313 316 318 319 319 320 319 319 320 322 321 319 319 319 316 313 311 308 306 303 299 295 293 292 291 290 290 290 291 291 291 292 294 299 305 310 317 320 324 325
295 296 298 300 307 314 316 317 317 317 316 318 319 318 318 317 316 315 313 310 306 304 300 298 293 292 291 290 290 289 289 289 290 292 291 293 296 303 302 309 313 316 326
293 295 296 298 299 303 310 310 311 312 312 314 318 319 320 319 315 312 308 308 306 303 298 294 293 291 290 290 291 290 288 288 289 289 290 292 295 301 300 300 300 305 320
291 292 293 294 295 298 300 303 305 305 307 311 312 313 316 317 315 311 309 307 305 303 301 295 292 291 289 288 287 286 287 287 288 289 289 290 293 298 298 297 297 297 303
289 291 291 292 293 294 297 297 298 298 297 298 300 306 308 311 312 311 307 304 303 299 297 295 292 289 289 288 286 284 284 285 286 288 288 290 291 294 295 296 295 295 295
287 288 290 291 292 292 294 295 295 296 295 295 296 296 299 302 303 306 306 303 301 299 297 295 293 292 289 288 287 287 282 282 282 285 285 287 290 291 291 292 293 293 293
286 287 288 289 290 291 292 292 291 290 289 290 291 292 294 295 295 297 299 300 299 297 296 295 294 293 291 288 286 288 286 286 283 283 284 284 287 290 289 289 289 290 290
286 286 286 288 288 289 289 290 289 288 289 289 289 289 290 291 291 291 292 294 294 295 296 294 293 291 291 291 288 285 284 285 285 284 285 283 283 286 289 290 290 288 289
284 284 285 286 286 287 287 287 287 286 286 285 285 286 287 288 288 288 289 289 290 291 291 291 290 289 289 288 287 286 286 286 284 284 283 283 283 284 286 288 288 289 288
Wind_Speed
5 9 15 15 14 14 15 14 14 12 12 12 11 11 11 11 12 13 14 13 12 10 10 9 9 9 9 9 9 9 9 8 9 12 11 11 13 14 13 11 11 7 9
9 11 15 16 15 14 14 15 14 13 13 13 12 12 11 11 11 13 12 12 11 10 9 8 7 8 8 7 8 8 8 7 8 8 8 9 11 12 11 12 11 9 13
10 11 13 15 15 14 14 15 14 13 13 13 12 12 11 9 9 10 10 10 10 8 8 7 8 7 7 7 7 7 7 7 7 4 4 4 5 11 11 10 11 10 10
11 10 10 13 15 15 15 15 14 13 13 13 13 13 14 11 9 8 9 10 10 7 5 5 6 6 6 6 6 6 6 7 6 4 3 4 5 11 11 12 11 11 11
9 11 10 12 14 15 16 16 14 14 13 14 14 14 13 11 9 8 8 8 9 5 4 4 4 5 5 4 4 5 6 7 6 5 6 5 3 10 11 11 10 11 10
8 10 12 15 15 14 14 15 15 14 14 14 14 13 12 11 9 7 6 6 5 5 5 4 4 4 3 3 4 4 6 8 7 6 6 6 4 11 11 12 11 9 8
7 7 11 16 16 16 15 14 13 13 13 15 15 14 13 12 11 8 6 5 7 5 5 4 4 3 3 3 3 4 6 7 5 6 5 5 4 8 8 10 8 7 7
9 7 9 13 12 14 16 16 14 13 11 12 13 15 14 12 11 9 5 7 7 6 6 5 4 4 3 3 4 4 6 7 5 6 5 4 4 8 8 8 4 4 5
6 6 6 9 10 10 11 12 13 13 11 10 12 14 14 12 12 11 6 6 7 7 6 5 4 4 3 4 4 5 7 8 6 3 4 2 5 5 6 5 3 3 4
6 6 7 7 8 9 9 12 11 11 12 11 11 12 12 13 12 12 10 4 8 7 7 6 5 4 3 3 3 4 7 9 5 4 3 1 4 4 4 3 3 2 2
4 7 7 9 9 11 8 9 12 12 11 10 9 11 10 5 7 9 9 7 8 8 9 8 7 5 3 1 1 4 6 3 3 2 1 2 3 3 2 2 3 3 3
7 7 8 7 9 8 7 7 9 7 6 6 5 6 4 5 5 6 7 9 9 8 9 8 7 6 3 1 2 3 2 3 2 2 0 2 2 4 4 4 4 4 5
7 4 9 9 8 9 7 5 4 4 3 3 6 6 5 4 3 3 3 3 3 5 3 5 3 2 2 1 1 0 1 2 1 1 1 1 2 5 5 4 5 6 6
8 10 8 10 10 10 6 6 6 6 5 4 4 7 5 4 4 3 3 4 4 3 4 3 2 3 2 3 3 2 1 2 2 1 2 3 3 5 6 6 7 7 6
8 7 9 8 10 9 8 6 6 6 6 5 5 6 5 6 6 5 4 3 4 4 4 4 4 4 3 3 3 4 3 3 2 1 1 5 4 5 7 8 9 8 8
9 8 7 9 9 8 8 7 6 5 5 4 4 6 6 5 6 5 5 5 4 4 4 4 5 4 4 3 4 4 4 3 3 4 3 3 6 6 8 11 11 10 10
11 12 7 7 6 7 8 6 5 5 5 5 5 6 6 5 7 7 5 5 4 4 5 3 2 2 2 2 3 3 3 3 3 4 4 3 4 5 9 12 13 12 12
14 15 12 6 2 4 6 5 4 4 4 3 4 4 6 6 6 6 5 5 5 4 4 4 3 2 3 3 2 4 3 3 5 5 4 4 4 4 4 5 7 14 14
13 14 16 14 10 6 6 4 3 4 3 3 3 3 5 6 6 5 6 6 5 4 4 4 2 3 3 3 3 3 4 4 5 3 6 6 6 5 3 6 6 6 14
14 15 15 13 15 8 5 5 4 4 4 3 2 1 3 3 4 3 3 4 5 4 3 3 3 2 2 3 2 3 4 4 4 5 6 4 5 5 5 5 4 4 11
16 17 17 17 16 11 5 4 4 4 4 4 4 5 3 1 2 4 3 3 4 5 6 6 3 4 2 2 2 3 3 6 6 5 5 5 5 6 5 4 3 3 3
14 15 17 16 15 12 8 4 4 3 3 3 7 9 10 6 1 3 3 3 2 2 4 4 4 2 2 4 4 2 4 5 4 6 5 5 7 4 5 6 5 5 4
16 15 15 15 15 14 12 8 6 5 5 7 9 9 10 11 10 8 4 2 1 2 3 4 4 6 4 3 5 4 0 5 3 1 4 4 5 4 5 5 6 6 6
11 11 13 14 15 14 14 11 13 8 7 4 5 5 8 13 13 13 11 8 5 1 3 3 3 3 2 4 1 5 2 2 1 6 2 3 4 6 6 5 6 6 6
9 10 9 12 14 13 14 12 9 9 5 5 7 11 12 11 12 12 12 9 8 5 5 5 3 4 4 3 4 2 4 3 1 3 8 4 2 5 6 7 7 6 8
7 7 9 11 12 11 11 12 11 11 9 9 9 9 8 7 9 13 11 10 9 8 6 5 5 5 5 4 3 3 4 4 4 5 6 5 6 5 5 6 7 8 7
Wind_Direction
213 176 171 170 166 159 159 153 148 145 141 136 132 124 110 113 118 113 103 97 94 91 87 86 80 73 69 66 65 63 67 64 54 104 92 82 71 60 55 56 60 55 77
148 173 169 169 168 163 158 151 148 147 146 143 135 125 119 108 120 113 110 107 100 92 88 87 82 79 75 67 68 60 62 60 62 74 84 84 84 76 62 48 65 59 59
149 167 169 168 168 161 156 150 150 150 151 149 144 137 126 122 127 124 122 111 103 95 96 93 94 92 81 71 64 62 59 54 46 35 78 100 91 86 75 59 61 68 62
154 163 174 170 169 163 157 156 155 158 160 161 160 156 144 133 123 147 144 144 120 110 99 101 102 91 79 75 74 62 54 53 8 346 181 121 103 96 83 75 70 54 37
157 163 168 170 174 167 160 162 162 166 170 172 173 162 135 132 143 130 125 115 128 140 135 123 110 90 80 69 64 50 57 49 50 44 103 117 112 99 95 86 70 62 47
160 167 167 168 172 172 171 168 169 174 180 186 166 149 147 159 156 148 150 165 148 177 174 149 109 99 91 70 48 29 45 60 85 65 71 92 101 107 109 102 93 69 64
166 171 171 172 173 173 174 176 179 182 191 178 161 155 162 166 162 160 170 187 179 163 173 156 134 113 85 69 64 59 54 65 83 72 64 61 73 101 88 71 55 75 63
165 172 176 179 177 176 177 178 180 185 202 181 170 161 168 173 164 147 191 209 175 191 184 162 150 124 109 85 66 60 51 87 90 84 68 51 54 96 98 98 88 75 58
167 162 175 183 185 178 181 179 180 183 187 176 172 166 169 168 164 153 174 217 199 194 193 169 159 144 136 96 77 66 62 92 96 94 84 51 75 99 104 106 118 101 90
174 179 176 180 186 185 185 185 187 188 187 186 183 178 174 168 167 155 159 222 200 192 192 179 175 169 142 99 78 58 80 86 93 88 67 38 104 122 122 137 144 130 125
234 197 184 182 187 193 190 191 188 191 193 196 193 181 178 168 164 156 155 193 195 197 189 183 185 176 146 125 100 49 74 78 95 78 50 53 137 154 170 182 183 174 151
222 217 195 187 186 185 195 191 197 190 194 187 181 176 171 156 163 159 159 183 189 190 182 190 193 165 110 11 351 36 79 102 101 112 262 76 155 199 205 197 189 177 164
230 206 197 190 185 180 192 194 199 200 178 172 166 161 158 137 161 151 155 181 188 185 166 169 179 123 186 230 284 326 99 92 111 105 282 179 240 226 209 203 202 180 170
219 222 206 195 185 187 177 180 190 202 196 183 177 169 166 152 171 167 177 184 173 170 166 148 155 176 230 264 228 219 186 157 164 185 253 223 239 250 229 221 210 190 192
280 281 235 191 190 190 180 171 171 186 193 191 176 182 166 171 176 167 179 191 181 165 169 174 179 195 222 228 210 197 195 185 189 211 248 257 241 254 241 228 212 204 206
334 301 228 217 203 172 182 178 178 161 170 165 169 184 182 175 167 175 167 182 199 184 178 175 183 197 217 214 227 214 206 202 201 204 223 258 239 248 251 238 212 211 207
342 336 306 201 182 178 181 168 159 173 163 167 173 179 187 186 167 171 173 182 198 186 175 166 180 170 207 244 253 252 231 224 225 222 221 223 237 247 247 236 214 214 210
358 6 1 0 138 177 161 148 148 163 162 175 178 175 189 193 180 173 170 191 190 172 171 167 169 195 229 218 232 244 251 250 239 233 229 228 221 226 261 232 244 215 213
6 14 20 22 24 52 63 62 98 127 143 184 179 187 202 188 183 172 176 183 166 170 173 172 163 164 197 219 240 257 261 259 253 256 246 240 236 234 246 263 246 245 205
19 23 24 25 23 23 49 55 44 41 43 48 60 195 192 191 176 167 167 177 158 156 163 164 172 175 179 189 236 259 265 264 263 250 251 258 246 238 236 249 276 275 215
27 29 27 29 17 21 13 22 36 32 358 24 26 41 55 26 157 165 162 151 162 184 196 186 145 183 221 146 85 319 284 242 245 236 240 245 244 229 227 239 255 288 288
31 27 27 29 29 28 17 357 41 65 57 36 8 22 18 19 64 160 172 194 182 152 178 173 168 163 227 186 149 103 304 314 267 227 215 222 234 224 228 223 222 232 252
31 26 30 30 31 26 26 25 18 26 22 21 23 22 14 16 18 14 9 5 198 187 203 198 189 189 207 223 225 163 231 240 320 341 254 242 236 226 232 231 228 226 224
34 27 34 37 36 36 32 41 51 53 49 359 2 8 33 33 30 20 10 10 11 339 273 244 217 217 150 213 216 253 263 160 276 316 310 274 227 244 228 233 227 222 220
35 37 29 36 37 33 41 46 46 53 44 32 28 24 17 21 29 25 19 12 7 354 334 307 274 217 207 223 203 201 212 222 214 191 284 304 305 243 242 229 224 220 218
39 43 41 42 39 32 34 39 54 55 45 45 38 32 17 19 16 19 13 9 4 1 347 328 310 277 255 257 250 237 210 223 204 206 244 262 243 269 240 229 224 226 223